Location: Helsinki
(60.1699°N, 24.9384°E)
Time: 22:22:50
(UTC+03:00)

Altair - All Passes

Search period start: 02 October 2022 00:00
Search period end: 12 October 2022 00:00
Orbit: 1501 x 1682 km, 47.2° (Epoch: 02 October)

Date Brightness Start Highest point End Pass type
(mag) Time Alt. Az. Time Alt. Az. Time Alt. Az.
02 Oct - 06:04:24 10° S 06:11:08 21° SE 06:18:00 10° E visible
02 Oct - 08:05:01 10° SW 08:13:40 36° SSE 08:22:30 10° ESE daylight
02 Oct - 10:07:52 10° WSW 10:16:47 39° S 10:25:50 10° SE daylight
02 Oct - 12:11:49 10° W 12:19:37 26° SSW 12:27:27 10° SSE daylight
02 Oct - 14:20:39 10° WSW 14:21:25 10° SW 14:22:12 10° SW daylight
03 Oct - 05:39:41 10° S 05:46:07 20° SE 05:52:42 10° E visible
03 Oct - 07:40:01 10° SW 07:48:35 35° SSE 07:57:20 10° ESE daylight
03 Oct - 09:42:46 10° WSW 09:51:41 39° S 10:00:45 10° ESE daylight
03 Oct - 11:46:38 10° W 11:54:35 28° SSW 12:02:33 10° SSE daylight
03 Oct - 13:53:49 10° WSW 13:56:28 11° SW 13:59:07 10° SW daylight
04 Oct - 05:15:00 10° S 05:21:07 19° SE 05:27:22 10° E visible
04 Oct - 07:15:02 10° SW 07:23:30 34° SSE 07:32:10 10° E daylight
04 Oct - 09:17:40 10° WSW 09:26:35 39° S 09:35:39 10° ESE daylight
04 Oct - 11:21:26 10° W 11:29:31 29° SSW 11:37:38 10° SSE daylight
04 Oct - 13:27:54 10° WSW 13:31:30 12° SW 13:35:07 10° SSW daylight
05 Oct - 04:50:23 10° S 04:56:08 18° SE 05:01:59 10° E visible
05 Oct - 06:50:04 10° SW 06:58:25 33° SSE 07:07:00 10° E visible
05 Oct - 08:52:35 10° WSW 09:01:29 39° S 09:10:33 10° ESE daylight
05 Oct - 10:56:16 10° W 11:04:27 30° SSW 11:12:42 10° SSE daylight
05 Oct - 13:02:13 10° WSW 13:06:32 14° SW 13:10:51 10° SSW daylight
06 Oct - 04:25:48 10° SSE 04:31:09 16° SE 04:36:34 10° E visible
06 Oct - 06:25:07 10° SW 06:33:22 32° SSE 06:41:49 10° E visible
06 Oct - 08:27:30 10° WSW 08:36:23 39° S 08:45:27 10° ESE daylight
06 Oct - 10:31:06 10° W 10:39:23 31° SSW 10:47:46 10° SSE daylight
06 Oct - 12:36:40 10° WSW 12:41:33 15° SW 12:46:27 10° SSW daylight
07 Oct - 04:01:19 10° SSE 04:06:10 15° SE 04:11:06 10° E visible
07 Oct - 06:00:11 10° SSW 06:08:18 31° SSE 06:16:37 10° E visible
07 Oct - 08:02:26 10° WSW 08:11:17 39° S 08:20:20 10° ESE daylight
07 Oct - 10:05:57 10° W 10:14:19 32° SSW 10:22:47 10° SSE daylight
07 Oct - 12:11:13 10° W 12:16:33 16° SW 12:21:56 10° SSW daylight
08 Oct - 03:36:55 10° SSE 03:41:12 14° SE 03:45:33 10° ESE visible
08 Oct - 05:35:16 10° SSW 05:43:15 30° SSE 05:51:26 10° E visible
08 Oct - 07:37:22 10° WSW 07:46:11 39° S 07:55:13 10° ESE daylight
08 Oct - 09:40:49 10° W 09:49:13 33° SSW 09:57:48 10° SE daylight
08 Oct - 11:45:49 10° W 11:51:34 17° SW 11:57:21 10° S daylight
09 Oct - 03:12:40 10° SSE 03:16:15 13° SE 03:19:52 10° ESE visible
09 Oct - 05:10:22 10° SSW 05:18:11 29° SSE 05:26:14 10° E visible
09 Oct - 07:12:19 10° WSW 07:21:05 39° S 07:30:05 10° ESE daylight
09 Oct - 09:15:40 10° W 09:24:09 34° SSW 09:32:47 10° SE daylight
09 Oct - 11:20:28 10° W 11:26:33 18° SW 11:32:43 10° S daylight
10 Oct - 02:48:39 10° SE 02:51:18 11° SE 02:53:58 10° ESE visible
10 Oct - 04:45:29 10° SSW 04:53:08 28° SSE 05:01:01 10° E visible
10 Oct - 06:47:16 10° WSW 06:55:59 39° S 07:04:58 10° ESE visible
10 Oct - 08:50:33 10° WSW 08:59:04 34° SSW 09:07:46 10° SE daylight
10 Oct - 10:55:09 10° W 11:01:33 19° SW 11:08:01 10° S daylight
11 Oct - 02:25:27 10° SE 02:26:21 10° SE 02:27:16 10° ESE visible
11 Oct - 04:20:38 10° SSW 04:28:06 27° SSE 04:35:48 10° E visible
11 Oct - 06:22:14 10° SW 06:30:54 38° S 06:39:49 10° ESE visible
11 Oct - 08:25:26 10° WSW 08:33:59 35° SSW 08:42:44 10° SE daylight
11 Oct - 10:29:52 10° W 10:36:32 21° SW 10:43:17 10° S daylight
